"startDT [UTC]","vpos","CH4 [ppm]","stdev(CH4) [ppm]","CO2 [ppm]","stdev(CO2) [ppm]","H2O [ppm]","stdev(H2O)","p_LGR [torr]","T_LGR [C]","mt1_LGR [us]","mt2_LGR [us]","T_ECpre [C]","T_EC1 [C]","T_EC2 [C]","p_inlet [hPa]","p_in [hPa]","p_out [hPa]","T_inlet [C]","RH_inlet [%]","dwpt_inlet [C]","T_vent [C]","RH_vent [%]","dwpt_vent [C]","flow_vent [l min-1]","flow_inlet [l min-1]","dwpt_sample [C]","T_room [C]"
2012-02-27 00:00:00,0.0,1.9292,0.0008,404.03,0.28,-1.0,0.0,138.22,23.95,24.57,36.23,0.04,-272.73,-272.73,-44,547,-930,16.9,0.6,-44.6,17.3,0.6,-43.6,5.73,2.41,-38.8,23.5
2012-02-27 00:01:00,0.0,1.9293,0.0008,404.15,0.27,-1.0,0.0,138.22,23.95,24.57,36.23,0.04,-272.73,-272.73,-44,547,-930,16.9,0.6,-44.5,17.3,0.6,-43.6,5.73,2.42,-38.8,23.5
2012-02-27 00:02:00,0.0,1.9290,0.0010,404.13,0.22,-1.0,0.0,138.22,23.95,24.57,36.23,0.04,-272.73,-272.73,-44,547,-930,16.9,0.6,-44.5,17.3,0.6,-43.6,5.73,2.44,-38.8,23.5
2012-02-27 00:03:00,0.0,1.9287,0.0008,403.99,0.29,-1.0,0.0,138.22,23.95,24.58,36.23,0.04,-272.73,-272.73,-44,547,-930,16.9,0.6,-44.6,17.3,0.6,-43.6,5.73,2.46,-38.8,23.5
2012-02-27 00:04:00,0.0,1.9299,0.0009,403.72,0.28,-1.0,0.0,138.22,23.96,24.57,36.23,0.04,-272.73,-272.72,-44,547,-930,16.9,0.6,-44.5,17.3,0.6,-43.5,5.73,2.47,-38.8,23.5
2012-02-27 00:05:00,0.0,1.9298,0.0010,403.80,0.30,-1.0,0.0,138.22,23.96,24.57,36.23,0.04,-272.73,-272.73,-44,546,-930,16.9,0.6,-44.4,17.3,0.6,-43.6,5.73,2.47,-38.8,23.5
2012-02-27 00:06:00,0.0,1.9296,0.0009,403.76,0.25,-1.0,0.0,138.22,23.96,24.57,36.23,0.04,-272.73,-272.73,-44,547,-930,16.9,0.6,-44.6,17.3,0.6,-43.6,5.73,2.45,-38.8,23.5
2012-02-27 00:07:00,0.0,1.9298,0.0009,403.83,0.25,-1.0,0.0,138.22,23.96,24.57,36.23,0.04,-272.73,-272.73,-44,547,-930,16.9,0.6,-44.4,17.3,0.6,-43.5,5.73,2.42,-38.8,23.4
2012-02-27 00:08:00,0.0,1.9290,0.0010,403.92,0.25,-1.0,0.0,138.22,23.96,24.58,36.23,0.04,-272.73,-272.73,-44,546,-930,16.9,0.6,-44.0,17.3,0.6,-43.6,5.73,2.41,-38.8,23.4
2012-02-27 00:09:00,0.0,1.9289,0.0009,403.88,0.22,-1.0,0.0,138.22,23.96,24.57,36.24,0.04,-272.73,-272.73,-44,547,-930,16.9,0.6,-44.1,17.3,0.6,-43.6,5.73,2.42,-38.8,23.4
2012-02-27 00:10:00,0.0,1.9288,0.0011,403.98,0.24,-1.0,0.0,138.22,23.95,24.57,36.23,0.04,-272.73,-272.73,-44,547,-930,16.9,0.6,-44.1,17.3,0.6,-43.6,5.73,2.44,-38.8,23.3
2012-02-27 00:11:00,0.0,1.9286,0.0009,404.12,0.28,-1.0,0.0,138.22,23.95,24.57,36.23,0.04,-272.73,-272.73,-44,547,-930,16.9,0.6,-44.1,17.3,0.6,-43.6,5.73,2.47,-38.8,23.4
2012-02-27 00:12:00,0.0,1.9281,0.0009,404.18,0.28,-1.0,0.0,138.22,23.95,24.57,36.22,0.04,-272.73,-272.73,-44,547,-930,16.9,0.6,-44.3,17.3,0.6,-43.6,5.73,2.47,-38.8,23.4
2012-02-27 00:13:00,0.0,1.9288,0.0008,404.05,0.23,-1.0,0.0,138.22,23.95,24.57,36.23,0.04,-272.73,-272.73,-44,547,-930,16.9,0.6,-44.4,17.3,0.6,-43.5,5.73,2.46,-38.8,23.4
2012-02-27 00:14:00,0.0,1.9295,0.0009,403.92,0.26,-1.0,0.0,138.22,23.95,24.57,36.23,0.04,-272.73,-272.73,-44,547,-930,16.9,0.6,-44.5,17.3,0.6,-43.6,5.73,2.45,-38.8,23.4
2012-02-27 00:15:00,0.0,1.9287,0.0008,403.93,0.26,-1.0,0.0,138.22,23.95,24.58,36.23,0.04,-272.73,-272.73,-44,547,-930,16.9,0.6,-44.5,17.3,0.6,-43.6,5.73,2.42,-38.8,23.4
2012-02-27 00:16:00,0.0,1.9287,0.0010,404.17,0.28,-1.0,0.0,138.22,23.96,24.57,36.23,0.04,-272.73,-272.73,-44,547,-930,16.9,0.6,-44.5,17.3,0.6,-43.6,5.73,2.42,-38.8,23.4
2012-02-27 00:17:00,0.0,1.9283,0.0009,404.24,0.32,-1.0,0.0,138.22,23.96,24.57,36.23,0.04,-272.73,-272.73,-44,547,-930,16.9,0.6,-44.5,17.3,0.6,-43.5,5.73,2.44,-38.8,23.5
2012-02-27 00:18:00,0.0,1.9275,0.0008,404.32,0.26,-1.0,0.0,138.22,23.95,24.57,36.23,0.04,-272.73,-272.73,-44,547,-930,16.9,0.6,-44.5,17.3,0.6,-43.7,5.73,2.48,-38.7,23.4
2012-02-27 00:19:00,0.0,1.9280,0.0009,404.15,0.33,-1.0,0.0,138.22,23.95,24.57,36.22,0.04,-272.73,-272.73,-44,547,-930,16.9,0.6,-44.5,17.3,0.6,-43.9,5.73,2.47,-38.7,23.4
2012-02-27 00:20:00,0.0,1.9283,0.0010,403.81,0.32,-1.0,0.0,138.22,23.95,24.57,36.23,0.04,-272.73,-272.73,-44,547,-930,17.0,0.6,-44.8,17.3,0.6,-43.9,5.73,2.44,-38.7,23.5
2012-02-27 00:21:00,0.0,1.9284,0.0008,403.63,0.25,-1.0,0.0,138.22,23.95,24.57,36.23,0.04,-272.73,-272.73,-44,547,-930,17.0,0.6,-45.0,17.3,0.6,-44.3,5.73,2.42,-38.7,23.5
2012-02-27 00:22:00,0.0,1.9282,0.0011,403.82,0.26,-1.0,0.0,138.22,23.95,24.57,36.24,0.04,-272.73,-272.73,-44,547,-930,16.9,0.6,-44.9,17.3,0.6,-44.4,5.73,2.41,-38.7,23.4
2012-02-27 00:23:00,0.0,1.9280,0.0008,403.81,0.26,-1.0,0.0,138.22,23.95,24.57,36.23,0.04,-272.73,-272.73,-44,547,-930,17.0,0.6,-44.8,17.3,0.6,-44.3,5.73,2.43,-38.7,23.4
2012-02-27 00:24:00,0.0,1.9282,0.0008,403.62,0.27,-1.0,0.0,138.22,23.94,24.57,36.23,0.04,-272.73,-272.73,-44,547,-930,17.0,0.5,-45.2,17.3,0.6,-44.4,5.73,2.45,-38.7,23.4
2012-02-27 00:25:00,0.0,1.9282,0.0008,403.56,0.27,-1.0,0.0,138.22,23.94,24.57,36.22,0.04,-272.73,-272.73,-44,547,-930,17.0,0.5,-45.3,17.3,0.6,-44.6,5.73,2.47,-38.7,23.4
2012-02-27 00:26:00,0.0,1.9284,0.0008,403.54,0.26,-1.0,0.0,138.22,23.94,24.57,36.23,0.04,-272.73,-272.73,-44,547,-930,17.0,0.5,-45.3,17.3,0.6,-44.8,5.73,2.47,-38.7,23.4
2012-02-27 00:27:00,0.0,1.9282,0.0009,403.54,0.27,-1.0,0.0,138.22,23.94,24.57,36.23,0.04,-272.73,-272.72,-44,547,-930,17.0,0.5,-45.4,17.3,0.6,-44.5,5.73,2.46,-38.7,23.4
2012-02-27 00:28:00,0.0,1.9285,0.0009,403.63,0.26,-1.0,0.0,138.22,23.94,24.57,36.23,0.04,-272.73,-272.73,-44,547,-930,17.0,0.5,-45.3,17.3,0.6,-44.4,5.73,2.44,-38.7,23.5
2012-02-27 00:29:00,0.0,1.9282,0.0007,403.80,0.25,-1.0,0.0,138.22,23.94,24.57,36.22,0.04,-272.73,-272.73,-44,547,-930,17.0,0.6,-45.1,17.3,0.6,-44.3,5.73,2.42,-38.6,23.5
2012-02-27 00:30:00,0.0,1.9290,0.0009,403.83,0.26,-1.0,0.0,138.22,23.94,24.57,36.23,0.04,-272.73,-272.73,-44,547,-930,17.0,0.5,-45.4,17.3,0.6,-44.3,5.73,2.41,-38.7,23.5
2012-02-27 00:31:00,0.0,1.9292,0.0009,404.00,0.32,-1.0,0.0,138.22,23.94,24.57,36.23,0.04,-272.73,-272.73,-44,547,-930,17.0,0.5,-45.4,17.3,0.6,-44.5,5.73,2.43,-38.7,23.5
2012-02-27 00:32:00,0.0,1.9290,0.0011,404.19,0.25,-1.0,0.0,138.22,23.94,24.57,36.23,0.04,-272.73,-272.73,-44,547,-930,17.0,0.5,-45.3,17.3,0.6,-44.4,5.73,2.45,-38.7,23.6
2012-02-27 00:33:00,0.0,1.9298,0.0008,403.85,0.26,-1.0,0.0,138.22,23.94,24.57,36.23,0.04,-272.73,-272.73,-44,547,-930,17.0,0.6,-45.1,17.3,0.6,-44.3,5.73,2.47,-38.7,23.5
2012-02-27 00:34:00,0.0,1.9297,0.0008,403.99,0.28,-1.0,0.0,138.22,23.94,24.57,36.23,0.04,-272.73,-272.73,-44,547,-930,17.0,0.6,-44.8,17.3,0.6,-44.3,5.73,2.46,-38.7,23.5
2012-02-27 00:35:00,0.0,1.9315,0.0012,403.81,0.32,-1.0,0.0,138.22,23.95,24.57,36.22,0.04,-272.73,-272.73,-44,547,-930,17.0,0.6,-44.0,17.4,0.7,-43.3,5.73,2.44,-38.7,23.5
2012-02-27 00:36:00,0.0,1.9313,0.0011,403.77,0.31,-1.0,0.0,138.22,23.95,24.57,36.23,0.04,-272.73,-272.73,-44,547,-930,17.0,0.6,-44.4,17.4,0.6,-43.4,5.73,2.43,-38.7,23.6
2012-02-27 00:37:00,0.0,1.9308,0.0009,403.74,0.27,-1.0,0.0,138.22,23.95,24.57,36.23,0.04,-272.73,-272.73,-44,547,-930,17.0,0.6,-44.5,17.4,0.6,-43.8,5.73,2.41,-38.7,23.5
2012-02-27 00:38:00,0.0,1.9307,0.0010,403.87,0.30,-1.0,0.0,138.22,23.95,24.57,36.23,0.04,-272.73,-272.73,-44,547,-930,17.0,0.6,-44.5,17.4,0.6,-43.5,5.73,2.41,-38.7,23.6
2012-02-27 00:39:00,0.0,1.9296,0.0010,403.96,0.28,-1.0,0.0,138.22,23.95,24.57,36.23,0.04,-272.73,-272.73,-44,547,-930,17.0,0.6,-44.5,17.4,0.6,-43.5,5.73,2.44,-38.7,23.5
2012-02-27 00:40:00,0.0,1.9294,0.0009,403.97,0.21,-1.0,0.0,138.22,23.95,24.57,36.23,0.04,-272.73,-272.73,-44,547,-930,17.0,0.6,-44.4,17.4,0.6,-43.6,5.73,2.46,-38.7,23.5
2012-02-27 00:41:00,0.0,1.9290,0.0010,404.16,0.30,-1.0,0.0,138.22,23.95,24.57,36.23,0.04,-272.73,-272.73,-44,547,-930,17.0,0.6,-44.4,17.4,0.6,-43.9,5.73,2.47,-38.7,23.5
2012-02-27 00:42:00,0.0,1.9286,0.0009,404.09,0.24,-1.0,0.0,138.22,23.96,24.57,36.23,0.04,-272.73,-272.73,-44,547,-930,17.0,0.6,-44.4,17.4,0.6,-43.9,5.73,2.46,-38.7,23.5
2012-02-27 00:43:00,0.0,1.9287,0.0009,404.19,0.23,-1.0,0.0,138.22,23.96,24.57,36.22,0.04,-272.73,-272.73,-44,547,-930,17.0,0.6,-44.4,17.4,0.6,-43.5,5.73,2.44,-38.7,23.5
2012-02-27 00:44:00,0.0,1.9279,0.0007,404.16,0.30,-1.0,0.0,138.22,23.96,24.58,36.23,0.04,-272.73,-272.73,-44,547,-930,17.0,0.6,-44.4,17.4,0.6,-43.5,5.73,2.42,-38.7,23.6
2012-02-27 00:45:00,0.0,1.9279,0.0009,404.27,0.29,-1.0,0.0,138.22,23.96,24.57,36.23,0.04,-272.73,-272.73,-44,547,-930,17.0,0.6,-44.5,17.4,0.6,-43.5,5.73,2.41,-38.7,23.6
2012-02-27 00:46:00,0.0,1.9282,0.0009,404.08,0.29,-1.0,0.0,138.22,23.96,24.57,36.23,0.04,-272.73,-272.73,-44,547,-930,17.0,0.6,-44.1,17.4,0.6,-43.5,5.73,2.42,-38.7,23.5
2012-02-27 00:47:00,0.0,1.9285,0.0012,403.97,0.28,-1.0,0.0,138.22,23.96,24.57,36.23,0.04,-272.73,-272.73,-44,547,-930,17.0,0.6,-44.1,17.4,0.6,-43.5,5.73,2.44,-38.7,23.5
2012-02-27 00:48:00,0.0,1.9299,0.0010,403.44,0.31,-1.0,0.0,138.22,23.96,24.57,36.23,0.04,-272.73,-272.73,-44,547,-930,17.0,0.6,-44.0,17.4,0.7,-43.2,5.73,2.45,-38.7,23.5
2012-02-27 00:49:00,0.0,1.9289,0.0008,403.76,0.31,-1.0,0.0,138.22,23.96,24.57,36.23,0.04,-272.73,-272.73,-44,548,-930,17.1,0.6,-43.9,17.4,0.7,-43.1,5.73,2.47,-38.7,23.5
2012-02-27 00:50:00,0.0,1.9294,0.0008,403.62,0.23,-1.0,0.0,138.22,23.96,24.57,36.23,0.04,-272.73,-272.73,-44,547,-930,17.0,0.6,-43.7,17.4,0.7,-43.1,5.73,2.45,-38.7,23.5
2012-02-27 00:51:00,0.0,1.9295,0.0009,403.79,0.28,-1.0,0.0,138.22,23.96,24.57,36.23,0.04,-272.73,-272.73,-44,548,-930,17.1,0.6,-43.6,17.4,0.7,-43.1,5.73,2.43,-38.7,23.5
2012-02-27 00:52:00,0.0,1.9305,0.0013,403.56,0.36,-1.0,0.0,138.22,23.96,24.57,36.23,0.04,-272.73,-272.73,-44,548,-930,17.1,0.6,-43.6,17.4,0.7,-42.9,5.73,2.42,-38.7,23.5
2012-02-27 00:53:00,0.0,1.9318,0.0009,403.32,0.26,-1.0,0.0,138.22,23.96,24.57,36.23,0.04,-272.73,-272.73,-44,548,-930,17.1,0.7,-43.3,17.4,0.7,-42.8,5.73,2.41,-38.7,23.5
2012-02-27 00:54:00,0.0,1.9316,0.0010,403.34,0.23,-1.0,0.0,138.22,23.96,24.57,36.23,0.04,-272.73,-272.73,-44,547,-930,17.1,0.7,-43.2,17.4,0.7,-42.7,5.73,2.43,-38.7,23.5
2012-02-27 00:55:00,0.0,1.9310,0.0010,403.31,0.25,-1.0,0.0,138.22,23.97,24.57,36.23,0.04,-272.73,-272.73,-44,548,-930,17.1,0.7,-43.2,17.4,0.7,-42.4,5.73,2.45,-38.7,23.5
2012-02-27 00:56:00,0.0,1.9319,0.0010,403.41,0.28,-1.0,0.0,138.22,23.97,24.57,36.23,0.04,-272.73,-272.73,-44,547,-930,17.1,0.7,-43.2,17.4,0.7,-42.4,5.73,2.46,-38.7,23.5
2012-02-27 00:57:00,0.0,1.9325,0.0011,403.44,0.23,-1.0,0.0,138.22,23.97,24.57,36.23,0.04,-272.73,-272.73,-44,548,-930,17.1,0.7,-43.3,17.4,0.7,-42.4,5.73,2.46,-38.7,23.5
2012-02-27 00:58:00,0.0,1.9326,0.0008,403.43,0.28,-1.0,0.0,138.22,23.97,24.58,36.23,0.04,-272.73,-272.73,-44,548,-930,17.1,0.7,-43.0,17.5,0.7,-42.3,5.73,2.44,-38.6,23.5
2012-02-27 00:59:00,0.0,1.9333,0.0009,403.33,0.24,-1.0,0.0,138.22,23.97,24.57,36.23,0.04,-272.73,-272.73,-44,548,-930,17.1,0.7,-42.8,17.5,0.7,-42.3,5.73,2.43,-38.6,23.5
2012-02-27 01:00:00,0.0,1.9331,0.0010,403.37,0.31,-1.0,0.0,138.22,23.97,24.57,36.23,0.04,-272.73,-272.73,-44,548,-930,17.1,0.7,-42.9,17.5,0.7,-42.2,5.73,2.42,-38.6,23.5
2012-02-27 01:01:00,0.0,1.9326,0.0010,403.71,0.31,-1.0,0.0,138.22,23.97,24.57,36.23,0.04,-272.73,-272.73,-44,548,-930,17.1,0.7,-42.5,17.5,0.8,-42.0,5.73,2.41,-38.6,23.6
2012-02-27 01:02:00,0.0,1.9315,0.0013,403.77,0.36,-1.0,0.0,138.22,23.97,24.57,36.23,0.04,-272.73,-272.73,-44,548,-930,17.1,0.7,-42.5,17.5,0.8,-42.0,5.73,2.43,-38.6,23.6
2012-02-27 01:03:00,0.0,1.9300,0.0009,404.01,0.26,-1.0,0.0,138.22,23.97,24.57,36.23,0.04,-272.73,-272.73,-44,548,-930,17.1,0.7,-42.5,17.5,0.8,-42.0,5.73,2.44,-38.6,23.5
2012-02-27 01:04:00,0.0,1.9303,0.0009,403.93,0.29,-1.0,0.0,138.22,23.98,24.57,36.23,0.04,-272.73,-272.73,-44,548,-930,17.1,0.7,-42.4,17.5,0.8,-42.0,5.73,2.45,-38.6,23.5
2012-02-27 01:05:00,0.0,1.9309,0.0010,403.81,0.30,-1.0,0.0,138.22,23.98,24.58,36.23,0.04,-272.72,-272.73,-44,548,-930,17.1,0.7,-42.5,17.5,0.8,-41.9,5.73,2.47,-38.6,23.5
2012-02-27 01:06:00,0.0,1.9303,0.0007,404.03,0.31,-1.0,0.0,138.22,23.98,24.57,36.22,0.04,-272.73,-272.73,-44,548,-930,17.1,0.7,-42.4,17.5,0.8,-41.9,5.73,2.45,-38.6,23.5
2012-02-27 01:07:00,0.0,1.9311,0.0011,404.01,0.30,-1.0,0.0,138.22,23.99,24.57,36.22,0.04,-272.73,-272.73,-44,548,-930,17.1,0.7,-42.5,17.5,0.8,-42.0,5.73,2.44,-38.6,23.5
2012-02-27 01:08:00,0.0,1.9306,0.0009,404.09,0.30,-1.0,0.0,138.22,23.99,24.57,36.23,0.04,-272.73,-272.73,-44,548,-930,17.2,0.7,-42.8,17.5,0.7,-42.2,5.73,2.42,-38.6,23.5
2012-02-27 01:09:00,0.0,1.9299,0.0010,404.41,0.29,-1.0,0.0,138.22,23.99,24.57,36.23,0.04,-272.73,-272.73,-44,548,-930,17.2,0.7,-42.8,17.5,0.7,-42.3,5.73,2.41,-38.6,23.5
2012-02-27 01:10:00,0.0,1.9289,0.0008,404.54,0.24,-1.0,0.0,138.22,23.99,24.57,36.23,0.04,-272.73,-272.73,-45,548,-930,17.2,0.7,-42.9,17.5,0.7,-42.3,5.73,2.43,-38.6,23.5
2012-02-27 01:11:00,0.0,1.9292,0.0009,404.25,0.32,-1.0,0.0,138.22,23.99,24.57,36.23,0.04,-272.73,-272.73,-45,548,-930,17.2,0.7,-42.8,17.5,0.7,-42.2,5.73,2.43,-38.6,23.5
2012-02-27 01:12:00,0.0,1.9294,0.0008,404.09,0.27,-1.0,0.0,138.22,23.99,24.57,36.23,0.04,-272.73,-272.73,-45,548,-930,17.2,0.7,-43.1,17.5,0.7,-42.3,5.73,2.45,-38.6,23.5
2012-02-27 01:13:00,0.0,1.9295,0.0009,404.57,0.23,-1.0,0.0,138.22,23.99,24.57,36.23,0.04,-272.73,-272.73,-44,548,-930,17.2,0.7,-43.2,17.5,0.7,-42.4,5.73,2.47,-38.6,23.5
2012-02-27 01:14:00,0.0,1.9298,0.0008,404.56,0.29,-1.0,0.0,138.22,24.00,24.57,36.23,0.04,-272.73,-272.73,-44,548,-930,17.2,0.7,-43.1,17.5,0.7,-42.3,5.73,2.46,-38.5,23.5
2012-02-27 01:15:00,0.0,1.9291,0.0010,404.40,0.28,-1.0,0.0,138.22,24.00,24.57,36.23,0.04,-272.73,-272.73,-45,548,-930,17.2,0.7,-43.1,17.6,0.7,-42.3,5.73,2.43,-38.5,23.5
2012-02-27 01:16:00,0.0,1.9287,0.0011,404.38,0.24,-1.0,0.0,138.22,24.00,24.57,36.23,0.04,-272.73,-272.73,-45,548,-930,17.2,0.7,-43.2,17.6,0.7,-42.7,5.73,2.42,-38.5,23.5
2012-02-27 01:17:00,0.0,1.9290,0.0008,404.41,0.32,-1.0,0.0,138.22,24.00,24.57,36.23,0.04,-272.73,-272.73,-45,549,-930,17.2,0.6,-43.8,17.6,0.7,-42.9,5.73,2.41,-38.5,23.5
2012-02-27 01:18:00,0.0,1.9288,0.0010,404.29,0.25,-1.0,0.0,138.22,24.00,24.57,36.23,0.04,-272.73,-272.73,-45,549,-930,17.2,0.8,-42.2,17.6,0.8,-41.3,5.73,2.43,-38.5,23.5
2012-02-27 01:19:00,0.0,1.9291,0.0008,404.34,0.31,-1.0,0.0,138.22,24.00,24.57,36.23,0.04,-272.73,-272.73,-44,548,-930,17.3,0.6,-43.7,17.6,0.7,-42.7,5.73,2.45,-38.5,23.5
2012-02-27 01:20:00,0.0,1.9294,0.0010,404.44,0.26,-1.0,0.0,138.21,24.01,24.57,36.23,0.04,-272.73,-272.73,-45,549,-930,17.2,0.6,-44.1,17.6,0.7,-43.1,5.73,2.47,-38.5,23.5
2012-02-27 01:21:00,0.0,1.9294,0.0008,404.63,0.31,-1.0,0.0,138.22,24.01,24.57,36.24,0.04,-272.73,-272.73,-45,549,-930,17.3,0.6,-44.3,17.6,0.6,-43.3,5.73,2.46,-38.5,23.6
2012-02-27 01:22:00,0.0,1.9299,0.0010,404.13,0.27,-1.0,0.0,138.22,24.01,24.57,36.24,0.04,-272.73,-272.73,-45,549,-930,17.3,0.6,-44.3,17.6,0.6,-43.3,5.73,2.44,-38.5,23.6
2012-02-27 01:23:00,0.0,1.9294,0.0010,404.46,0.28,-1.0,0.0,138.22,24.01,24.57,36.23,0.04,-272.73,-272.73,-45,549,-930,17.3,0.6,-44.3,17.7,0.7,-43.2,5.73,2.41,-38.5,23.6
2012-02-27 01:24:00,0.0,1.9297,0.0008,404.51,0.24,-1.0,0.0,138.22,24.01,24.57,36.22,0.04,-272.73,-272.73,-45,549,-930,17.3,0.6,-44.2,17.7,0.6,-43.3,5.73,2.41,-38.5,23.6
2012-02-27 01:25:00,0.0,1.9305,0.0008,404.39,0.23,-1.0,0.0,138.22,24.01,24.57,36.23,0.04,-272.73,-272.73,-45,549,-930,17.4,0.6,-44.3,17.7,0.6,-43.2,5.73,2.43,-38.5,23.7
2012-02-27 01:26:00,0.0,1.9307,0.0009,404.24,0.27,-1.0,0.0,138.21,24.01,24.57,36.23,0.04,-272.73,-272.73,-45,549,-930,17.4,0.6,-44.1,17.7,0.7,-42.9,5.73,2.45,-38.5,23.7
2012-02-27 01:27:00,0.0,1.9288,0.0010,404.16,0.26,-1.0,0.0,138.22,24.01,24.57,36.23,0.04,-272.72,-272.73,-45,549,-930,17.4,0.6,-43.8,17.8,0.7,-42.8,5.73,2.46,-38.5,23.7
2012-02-27 01:28:00,0.0,1.9276,0.0009,404.11,0.29,-1.0,0.0,138.21,24.01,24.57,36.23,0.04,-272.73,-272.73,-45,549,-930,17.4,0.6,-43.9,17.8,0.7,-42.9,5.73,2.46,-38.5,23.7
2012-02-27 01:29:00,0.0,1.9275,0.0010,404.09,0.24,-1.0,0.0,138.22,24.01,24.57,36.23,0.04,-272.73,-272.73,-45,549,-930,17.5,0.6,-44.0,17.8,0.7,-42.9,5.73,2.45,-38.2,23.7
2012-02-27 01:30:00,0.0,1.9290,0.0010,404.08,0.29,-1.0,0.0,138.21,24.02,24.57,36.23,0.04,-272.73,-272.73,-45,549,-930,17.5,0.7,-43.0,17.8,0.7,-42.1,5.73,2.42,-37.8,23.8
2012-02-27 01:31:00,0.0,1.9286,0.0009,404.06,0.30,-1.0,0.0,138.22,24.02,24.57,36.23,0.04,-272.73,-272.73,-45,549,-930,17.5,0.6,-44.0,17.8,0.7,-43.1,5.73,2.41,-37.8,23.7
2012-02-27 01:32:00,0.0,1.9281,0.0008,404.11,0.28,-1.0,0.0,138.21,24.02,24.57,36.23,0.04,-272.73,-272.73,-45,550,-930,17.5,0.6,-44.2,17.8,0.6,-43.2,5.73,2.41,-37.8,23.8
2012-02-27 01:33:00,0.0,1.9283,0.0008,404.05,0.30,-1.0,0.0,138.21,24.03,24.57,36.24,0.04,-272.73,-272.73,-45,550,-930,17.5,0.6,-44.7,17.8,0.6,-43.4,5.73,2.42,-37.8,23.8
2012-02-27 01:34:00,0.0,1.9285,0.0009,404.20,0.31,-1.0,0.0,138.21,24.03,24.57,36.23,0.04,-272.73,-272.72,-45,550,-930,17.5,0.6,-44.6,17.9,0.6,-43.7,5.73,2.44,-37.8,23.8
2012-02-27 01:35:00,0.0,1.9278,0.0008,404.09,0.28,-1.0,0.0,138.22,24.03,24.57,36.23,0.04,-272.73,-272.73,-45,550,-930,17.5,0.6,-44.6,17.9,0.6,-43.6,5.73,2.46,-37.8,23.8
2012-02-27 01:36:00,0.0,1.9276,0.0008,404.01,0.28,-1.0,0.0,138.21,24.04,24.57,36.23,0.04,-272.73,-272.73,-45,550,-930,17.6,0.6,-44.6,17.9,0.6,-43.7,5.73,2.45,-37.8,23.9
2012-02-27 01:37:00,0.0,1.9275,0.0008,404.03,0.30,-1.0,0.0,138.21,24.04,24.57,36.23,0.04,-272.73,-272.72,-45,550,-930,17.6,0.6,-44.5,17.9,0.6,-43.6,5.73,2.45,-37.8,23.9
2012-02-27 01:38:00,0.0,1.9274,0.0009,403.98,0.27,-1.0,0.0,138.22,24.04,24.57,36.23,0.04,-272.73,-272.73,-45,550,-931,17.5,0.9,-41.5,17.9,0.9,-40.8,5.73,2.43,-37.8,23.9
2012-02-27 01:39:00,0.0,1.9276,0.0007,404.18,0.29,-1.0,0.0,138.21,24.04,24.57,36.22,0.04,-272.73,-272.73,-45,550,-930,17.5,1.0,-39.6,17.9,1.0,-38.8,5.73,2.42,-37.8,23.9
2012-02-27 01:40:00,0.0,1.9274,0.0008,404.18,0.25,-1.0,0.0,138.21,24.04,24.57,36.22,0.04,-272.73,-272.73,-45,550,-931,17.5,0.7,-42.9,17.9,0.7,-42.0,5.73,2.40,-37.8,23.9
2012-02-27 01:41:00,0.0,1.9279,0.0009,404.14,0.25,-1.0,0.0,138.21,24.04,24.57,36.23,0.04,-272.73,-272.73,-45,550,-931,17.5,0.6,-43.7,17.9,0.7,-42.8,5.73,2.42,-37.9,23.9
2012-02-27 01:42:00,0.0,1.9284,0.0010,404.10,0.27,-1.0,0.0,138.21,24.04,24.57,36.22,0.04,-272.73,-272.72,-45,550,-930,17.5,0.6,-43.6,17.9,0.7,-42.7,5.73,2.43,-37.8,24.0
2012-02-27 01:43:00,0.0,1.9294,0.0010,404.07,0.25,-1.0,0.0,138.21,24.04,24.57,36.23,0.04,-272.73,-272.73,-45,550,-930,17.5,0.6,-43.6,17.9,0.7,-42.4,5.73,2.46,-37.9,23.9
2012-02-27 01:44:00,0.0,1.9305,0.0009,404.15,0.33,-1.0,0.0,138.21,24.04,24.57,36.23,0.04,-272.73,-272.73,-45,550,-931,17.5,0.6,-43.8,17.9,0.7,-42.5,5.73,2.46,-37.9,23.9
2012-02-27 01:45:00,0.0,1.9306,0.0009,404.28,0.32,-1.0,0.0,138.21,24.04,24.57,36.23,0.04,-272.73,-272.73,-45,550,-930,17.5,0.6,-43.4,17.9,0.7,-42.5,5.73,2.46,-37.9,23.9
2012-02-27 01:46:00,0.0,1.9310,0.0010,404.53,0.28,-1.0,0.0,138.21,24.05,24.57,36.22,0.04,-272.73,-272.73,-45,550,-930,17.5,0.7,-43.2,17.9,0.7,-42.2,5.73,2.43,-37.9,23.8
2012-02-27 01:47:00,0.0,1.9300,0.0010,404.30,0.28,-1.0,0.0,138.21,24.05,24.57,36.23,0.04,-272.73,-272.73,-45,550,-930,17.5,0.7,-43.0,17.9,0.7,-42.1,5.73,2.41,-37.9,23.9
2012-02-27 01:48:00,0.0,1.9294,0.0009,404.23,0.33,-1.0,0.0,138.21,24.06,24.58,36.24,0.04,-272.73,-272.73,-45,550,-930,17.5,0.7,-42.4,17.9,0.8,-41.5,5.73,2.41,-37.9,23.9
2012-02-27 01:49:00,0.0,1.9321,0.0009,404.17,0.25,-1.0,0.0,138.21,24.06,24.57,36.23,0.04,-272.73,-272.73,-45,550,-930,17.5,0.7,-42.8,17.9,0.7,-41.9,5.73,2.42,-37.9,23.9
2012-02-27 01:50:00,0.0,1.9341,0.0011,403.84,0.27,-1.0,0.0,138.21,24.06,24.57,36.23,0.04,-272.73,-272.73,-45,550,-931,17.5,0.7,-42.9,17.9,0.7,-42.0,5.73,2.45,-37.9,23.9
2012-02-27 01:51:00,0.0,1.9348,0.0009,403.59,0.22,-1.0,0.0,138.21,24.06,24.57,36.23,0.04,-272.73,-272.73,-45,550,-930,17.5,0.7,-42.8,17.9,0.7,-42.0,5.73,2.47,-37.9,23.9
2012-02-27 01:52:00,0.0,1.9351,0.0010,403.64,0.26,-1.0,0.0,138.21,24.07,24.57,36.23,0.04,-272.73,-272.73,-45,550,-931,17.5,0.7,-42.9,17.9,0.7,-42.1,5.73,2.46,-37.9,23.9
2012-02-27 01:53:00,0.0,1.9353,0.0009,403.46,0.28,-1.0,0.0,138.21,24.07,24.57,36.23,0.04,-272.73,-272.73,-45,550,-931,17.5,0.7,-42.6,17.9,0.7,-41.8,5.73,2.44,-37.9,23.9
2012-02-27 01:54:00,0.0,1.9351,0.0008,403.53,0.27,-1.0,0.0,138.21,24.08,24.57,36.23,0.04,-272.73,-272.73,-45,550,-930,17.5,1.7,-36.4,17.9,1.7,-36.2,5.73,2.42,-37.9,23.9
2012-02-27 01:55:00,0.0,1.9353,0.0009,403.38,0.29,-1.0,0.0,138.21,24.08,24.57,36.23,0.04,-272.73,-272.73,-45,550,-930,17.5,1.9,-33.5,17.9,2.0,-32.6,5.73,2.40,-37.9,23.9
2012-02-27 01:56:00,0.0,1.9349,0.0009,403.40,0.31,-1.0,0.0,138.21,24.08,24.57,36.23,0.04,-272.73,-272.73,-45,550,-931,17.5,1.0,-39.7,17.9,1.0,-39.0,5.73,2.41,-37.9,23.9
2012-02-27 01:57:00,0.0,1.9339,0.0010,403.64,0.24,-1.0,0.0,138.21,24.08,24.57,36.23,0.04,-272.73,-272.73,-45,551,-930,17.5,0.8,-41.5,17.9,0.8,-40.7,5.73,2.43,-37.8,23.9
2012-02-27 01:58:00,0.0,1.9335,0.0008,403.61,0.29,-1.0,0.0,138.21,24.08,24.58,36.23,0.04,-272.73,-272.73,-45,550,-930,17.5,0.8,-41.9,17.9,0.8,-41.0,5.73,2.45,-37.8,23.9
2012-02-27 01:59:00,0.0,1.9341,0.0009,404.04,0.29,-1.0,0.0,138.21,24.09,24.57,36.23,0.04,-272.73,-272.73,-45,550,-931,17.5,0.8,-41.9,17.9,0.8,-41.1,5.73,2.46,-37.8,23.9
2012-02-27 02:00:00,0.0,1.9332,0.0010,404.07,0.29,-1.0,0.0,138.21,24.09,24.57,36.23,0.04,-272.73,-272.73,-45,550,-930,17.5,0.8,-41.9,17.9,0.8,-41.1,5.73,2.46,-37.9,23.8
2012-02-27 02:01:00,0.0,1.9332,0.0009,404.21,0.33,-1.0,0.0,138.21,24.10,24.57,36.23,0.04,-272.73,-272.73,-45,550,-930,17.5,0.7,-42.2,17.9,0.8,-41.4,5.73,2.44,-37.9,23.9
2012-02-27 02:02:00,0.0,1.9330,0.0008,404.31,0.32,-1.0,0.0,138.21,24.11,24.58,36.23,0.04,-272.73,-272.73,-45,551,-931,17.5,0.7,-42.4,17.9,0.8,-41.5,5.73,2.41,-37.8,23.9
2012-02-27 02:03:00,0.0,1.9334,0.0009,404.21,0.30,-1.0,0.0,138.21,24.11,24.57,36.23,0.04,-272.73,-272.73,-45,551,-931,17.5,0.7,-42.7,17.9,0.7,-42.0,5.73,2.41,-37.8,23.9
2012-02-27 02:04:00,0.0,1.9321,0.0009,404.45,0.35,-1.0,0.0,138.21,24.11,24.58,36.23,0.04,-272.73,-272.73,-45,550,-931,17.5,0.7,-43.0,17.9,0.7,-42.1,5.73,2.42,-37.8,23.9
2012-02-27 02:05:00,0.0,1.9324,0.0010,404.44,0.31,-1.0,0.0,138.21,24.12,24.57,36.23,0.04,-272.73,-272.73,-45,550,-930,17.5,0.6,-43.4,17.9,0.7,-42.3,5.73,2.44,-37.8,23.9
2012-02-27 02:06:00,0.0,1.9318,0.0008,404.86,0.38,-1.0,0.0,138.21,24.12,24.58,36.23,0.04,-272.73,-272.73,-45,551,-930,17.5,0.6,-43.4,17.9,0.7,-42.5,5.73,2.46,-37.8,23.9
2012-02-27 02:07:00,0.0,1.9321,0.0007,404.99,0.29,-1.0,0.0,138.21,24.12,24.57,36.23,0.04,-272.73,-272.73,-45,551,-931,17.5,0.6,-43.8,17.9,0.7,-42.7,5.73,2.46,-37.8,23.9
2012-02-27 02:08:00,0.0,1.9319,0.0008,404.99,0.33,-1.0,0.0,138.21,24.12,24.58,36.23,0.04,-272.73,-272.73,-45,550,-931,17.5,0.6,-43.8,17.9,0.7,-42.9,5.73,2.44,-37.8,23.9
2012-02-27 02:09:00,0.0,1.9320,0.0009,404.82,0.33,-1.0,0.0,138.21,24.12,24.57,36.24,0.04,-272.73,-272.73,-45,551,-931,17.5,0.6,-43.7,17.9,0.7,-42.8,5.73,2.42,-37.8,23.9
2012-02-27 02:10:00,0.0,1.9318,0.0009,404.86,0.33,-1.0,0.0,138.21,24.13,24.57,36.23,0.04,-272.73,-272.73,-45,551,-931,17.5,0.6,-43.7,17.9,0.7,-42.9,5.73,2.40,-37.8,24.0
2012-02-27 02:11:00,0.0,1.9311,0.0010,404.77,0.27,-1.0,0.0,138.21,24.13,24.57,36.23,0.04,-272.73,-272.73,-45,551,-930,17.5,0.6,-43.8,17.9,0.7,-42.8,5.73,2.41,-37.8,24.0
2012-02-27 02:12:00,0.0,1.9304,0.0008,404.67,0.29,-1.0,0.0,138.21,24.13,24.58,36.23,0.04,-272.73,-272.73,-45,551,-930,17.5,0.6,-43.8,17.9,0.7,-42.7,5.73,2.44,-37.8,23.9
2012-02-27 02:13:00,0.0,1.9312,0.0009,404.43,0.32,-1.0,0.0,138.21,24.13,24.57,36.24,0.04,-272.73,-272.73,-45,550,-931,17.5,0.6,-43.8,17.9,0.7,-42.8,5.73,2.46,-37.8,23.9
2012-02-27 02:14:00,0.0,1.9313,0.0009,404.61,0.34,-1.0,0.0,138.21,24.13,24.58,36.23,0.04,-272.73,-272.73,-45,551,-931,17.5,0.6,-43.8,17.9,0.7,-42.9,5.73,2.46,-37.8,24.0
2012-02-27 02:15:00,0.0,1.9327,0.0009,404.52,0.30,-1.0,0.0,138.21,24.14,24.57,36.23,0.04,-272.73,-272.73,-45,551,-930,17.5,0.6,-43.8,17.9,0.7,-42.8,5.73,2.45,-37.8,23.9
2012-02-27 02:16:00,0.0,1.9324,0.0009,404.40,0.30,-1.0,0.0,138.21,24.14,24.57,36.22,0.04,-272.73,-272.73,-45,550,-931,17.5,0.6,-43.7,17.9,0.7,-42.9,5.73,2.43,-37.8,23.9
2012-02-27 02:17:00,0.0,1.9324,0.0009,404.39,0.26,-1.0,0.0,138.21,24.15,24.58,36.23,0.04,-272.73,-272.73,-45,551,-931,17.5,0.6,-43.6,17.9,0.7,-42.5,5.73,2.40,-37.7,23.9
2012-02-27 02:18:00,0.0,1.9327,0.0009,404.49,0.33,-1.0,0.0,138.21,24.15,24.57,36.23,0.04,-272.72,-272.73,-45,551,-930,17.5,0.6,-43.4,17.9,0.7,-42.4,5.73,2.41,-37.7,23.9